FDX396 KMEM-KIAH

Flight info

Callsign FDX396
Flight time N/A
Altitude 40000
Route CHLDR5 ANSWA LITTR Q33 SWEUP GESNR2
Aircraft MD11/H-SDE1E2E3FGHIJ2J3J4J5M1RWXY/LB1D1

Departure

Time 2026-05-04 00:59
Airport Memphis International Airport (KMEM)

Arrival

Time N/A
Airport George Bush Intercontinental Airport (KIAH)
Time Latitude Longitude Altitude Speed Heading
2026-05-04 00:31 35.06442 -89.97463 275 ft 0 kts 356°
2026-05-04 00:47 35.06440 -89.97465 277 ft 4 kts 341°
2026-05-04 00:47 35.06442 -89.97468 279 ft 4 kts 338°
2026-05-04 00:47 35.06419 -89.97464 280 ft 4 kts
2026-05-04 00:47 35.06396 -89.97464 282 ft 4 kts 341°
2026-05-04 00:48 35.06385 -89.97463 283 ft 4 kts 278°
2026-05-04 00:48 35.06387 -89.97434 288 ft 4 kts 262°
2026-05-04 00:48 35.06389 -89.97412 286 ft 1 kts 269°
2026-05-04 00:53 35.06389 -89.97421 288 ft 5 kts 269°
2026-05-04 00:53 35.06388 -89.97479 279 ft 8 kts 263°
2026-05-04 00:53 35.06367 -89.97523 280 ft 3 kts 221°
2026-05-04 00:53 35.06359 -89.97528 282 ft 1 kts 211°
2026-05-04 00:54 35.06341 -89.97536 284 ft 4 kts 196°
2026-05-04 00:54 35.06303 -89.97540 286 ft 8 kts 182°
2026-05-04 00:54 35.06243 -89.97542 294 ft 9 kts 180°
2026-05-04 00:54 35.06172 -89.97542 300 ft 12 kts 180°
2026-05-04 00:55 35.06084 -89.97542 305 ft 13 kts 180°
2026-05-04 00:55 35.06012 -89.97537 311 ft 8 kts 172°
2026-05-04 00:55 35.05953 -89.97521 313 ft 11 kts 165°
2026-05-04 00:55 35.05872 -89.97495 315 ft 12 kts 166°
2026-05-04 00:56 35.05766 -89.97484 315 ft 17 kts 180°
2026-05-04 00:56 35.05656 -89.97486 320 ft 13 kts 181°
2026-05-04 00:56 35.05596 -89.97486 326 ft 6 kts 180°
2026-05-04 00:56 35.05552 -89.97486 329 ft 8 kts 181°
2026-05-04 00:57 35.05509 -89.97500 331 ft 2 kts 207°
2026-05-04 00:57 35.05508 -89.97501 331 ft 0 kts 207°
2026-05-04 00:57 35.05494 -89.97513 329 ft 7 kts 217°
2026-05-04 00:58 35.05428 -89.97587 330 ft 14 kts 215°
2026-05-04 00:58 35.05342 -89.97612 330 ft 5 kts 180°
2026-05-04 00:58 35.05275 -89.97611 325 ft 43 kts 179°
2026-05-04 00:58 35.04567 -89.97598 326 ft 153 kts 180°
2026-05-04 00:59 35.03329 -89.97569 844 ft 202 kts 179°
2026-05-04 00:59 35.01913 -89.97510 1717 ft 204 kts 180°
2026-05-04 00:59 35.00488 -89.97444 2513 ft 207 kts 180°
2026-05-04 00:59 34.99046 -89.97422 3375 ft 203 kts 190°
2026-05-04 01:00 34.97785 -89.98021 4372 ft 192 kts 219°
2026-05-04 01:00 34.96569 -89.99105 4780 ft 245 kts 221°
2026-05-04 01:00 34.95279 -90.00584 5507 ft 257 kts 234°
2026-05-04 01:00 34.94397 -90.02458 6508 ft 259 kts 253°
2026-05-04 01:01 34.94101 -90.04630 7382 ft 264 kts 268°
2026-05-04 01:01 34.94070 -90.06893 8238 ft 270 kts 272°
2026-05-04 01:01 34.94087 -90.09208 9097 ft 276 kts 272°
2026-05-04 01:01 34.94038 -90.11572 9925 ft 283 kts 269°
2026-05-04 01:02 34.93915 -90.14046 10231 ft 305 kts 268°
2026-05-04 01:02 34.93756 -90.16693 10672 ft 316 kts 267°
2026-05-04 01:02 34.93583 -90.19368 11384 ft 318 kts 267°
2026-05-04 01:02 34.93407 -90.22067 12052 ft 320 kts 268°
2026-05-04 01:03 34.93245 -90.24784 12702 ft 322 kts 268°
2026-05-04 01:03 34.93091 -90.27482 13329 ft 324 kts 268°
2026-05-04 01:03 34.92936 -90.30233 13942 ft 326 kts 269°
2026-05-04 01:03 34.92781 -90.33006 14453 ft 328 kts 269°
2026-05-04 01:04 34.92625 -90.35788 14958 ft 330 kts 269°
2026-05-04 01:04 34.92467 -90.38587 15445 ft 332 kts 269°
2026-05-04 01:04 34.92307 -90.41401 15914 ft 333 kts 269°
2026-05-04 01:04 34.92147 -90.44225 16358 ft 335 kts 269°
2026-05-04 01:05 34.91984 -90.47066 17525 ft 335 kts 269°
2026-05-04 01:05 34.91820 -90.49919 18705 ft 340 kts 269°
2026-05-04 01:05 34.91654 -90.52816 19771 ft 344 kts 269°
2026-05-04 01:05 34.91486 -90.55739 20823 ft 349 kts 269°
2026-05-04 01:06 34.91314 -90.58708 21853 ft 353 kts 269°
2026-05-04 01:06 34.91138 -90.61718 22853 ft 358 kts 269°
2026-05-04 01:06 34.90960 -90.64773 23635 ft 369 kts 269°
2026-05-04 01:06 34.90775 -90.67989 23750 ft 393 kts 269°
2026-05-04 01:07 34.90566 -90.71391 24008 ft 411 kts 267°
2026-05-04 01:07 34.90197 -90.74821 24818 ft 416 kts 264°
2026-05-04 01:07 34.89697 -90.78356 25705 ft 420 kts 263°
2026-05-04 01:07 34.89153 -90.81865 26581 ft 424 kts 263°
2026-05-04 01:08 34.88597 -90.85371 27437 ft 428 kts 263°
2026-05-04 01:08 34.88033 -90.88943 28285 ft 432 kts 263°
2026-05-04 01:08 34.87469 -90.92554 29128 ft 436 kts 263°
2026-05-04 01:08 34.86893 -90.96198 29900 ft 441 kts 261°
2026-05-04 01:09 34.85919 -90.99789 30567 ft 452 kts 251°
2026-05-04 01:09 34.84361 -91.03161 31170 ft 463 kts 240°
2026-05-04 01:09 34.82293 -91.06203 31873 ft 471 kts 231°
2026-05-04 01:09 34.79802 -91.08823 32625 ft 477 kts 222°
2026-05-04 01:10 34.76960 -91.10949 33378 ft 483 kts 213°
2026-05-04 01:10 34.73893 -91.12668 34094 ft 486 kts 209°
2026-05-04 01:10 34.70763 -91.14234 34646 ft 484 kts 210°
2026-05-04 01:10 34.67740 -91.15979 35257 ft 476 kts 215°
2026-05-04 01:11 34.64954 -91.17996 35857 ft 468 kts 221°
2026-05-04 01:11 34.62313 -91.20277 36444 ft 462 kts 225°
2026-05-04 01:11 34.59800 -91.22697 37027 ft 458 kts 227°
2026-05-04 01:11 34.57362 -91.25172 37606 ft 455 kts 228°
2026-05-04 01:12 34.54957 -91.27655 38167 ft 453 kts 228°
2026-05-04 01:12 34.52567 -91.30127 38699 ft 451 kts 228°
2026-05-04 01:12 34.50174 -91.32589 39042 ft 450 kts 228°
2026-05-04 01:12 34.47810 -91.35006 39388 ft 450 kts 228°
2026-05-04 01:13 34.45412 -91.37447 39722 ft 450 kts 228°
2026-05-04 01:13 34.43005 -91.39889 39982 ft 451 kts 228°
2026-05-04 01:13 34.40601 -91.42324 40043 ft 450 kts 228°
2026-05-04 01:14 34.35796 -91.47180 40062 ft 450 kts 227°
2026-05-04 01:14 34.30992 -91.52028 40069 ft 449 kts 227°
2026-05-04 01:15 34.26190 -91.56867 40065 ft 448 kts 228°
2026-05-04 01:15 34.21392 -91.61681 40067 ft 448 kts 227°
2026-05-04 01:16 34.16603 -91.66469 40067 ft 448 kts 228°
2026-05-04 01:16 34.11839 -91.71240 40059 ft 448 kts 228°
2026-05-04 01:17 34.07054 -91.76032 40056 ft 447 kts 228°
2026-05-04 01:17 34.02262 -91.80825 40062 ft 447 kts 228°
2026-05-04 01:18 33.97475 -91.85606 40057 ft 447 kts 228°
2026-05-04 01:18 33.92685 -91.90382 40041 ft 446 kts 228°
2026-05-04 01:19 33.88710 -91.94341 40052 ft 446 kts 229°
2026-05-04 01:19 33.83932 -91.99092 40062 ft 445 kts 229°
2026-05-04 01:20 33.79154 -92.03836 40064 ft 445 kts 229°
2026-05-04 01:20 33.74375 -92.08574 40067 ft 445 kts 229°
2026-05-04 01:21 33.69600 -92.13302 40064 ft 445 kts 229°
2026-05-04 01:21 33.64820 -92.18027 40053 ft 445 kts 229°
2026-05-04 01:22 33.60036 -92.22748 40070 ft 445 kts 229°
2026-05-04 01:22 33.55264 -92.27427 40073 ft 445 kts 229°
2026-05-04 01:23 33.50461 -92.32136 40067 ft 445 kts 229°
2026-05-04 01:23 33.45670 -92.36838 40070 ft 445 kts 229°
2026-05-04 01:24 33.40574 -92.41177 40068 ft 461 kts 217°
2026-05-04 01:24 33.37559 -92.42648 40069 ft 476 kts 206°
2026-05-04 01:24 33.34275 -92.43523 40077 ft 488 kts 198°